Tiempo cada hora Czymanowo

Hoy, 25 Junio, Viernes

Tiempo Temperatura Precipitaciones Viento Presión Humedad
00:00 +16°C° 0 mm 2 mps 760 mmHg 96%
01:00 +16°C° 0 mm 2 mps 759 mmHg 96%
02:00 +16°C° 0 mm 3 mps 759 mmHg 96%
03:00 +16°C° 0 mm 3 mps 759 mmHg 97%
04:00 +16°C° 0 mm 3 mps 759 mmHg 97%
05:00 +17°C° 0 mm 4 mps 759 mmHg 92%
06:00 +17°C° 0 mm 5 mps 759 mmHg 88%
07:00 +17°C° 0 mm 5 mps 759 mmHg 84%
08:00 +19°C° 0 mm 5 mps 760 mmHg 75%
09:00 +20°C° 0 mm 5 mps 760 mmHg 67%
10:00 +21°C° 0 mm 4 mps 760 mmHg 58%
11:00 +21°C° 0 mm 4 mps 760 mmHg 58%
12:00 +21°C° 0 mm 4 mps 760 mmHg 58%
13:00 +21°C° 0 mm 4 mps 760 mmHg 57%
14:00 +22°C° 0 mm 4 mps 760 mmHg 57%
15:00 +22°C° 0 mm 4 mps 760 mmHg 56%
16:00 +22°C° 0 mm 5 mps 760 mmHg 56%
17:00 +21°C° 0 mm 4 mps 760 mmHg 61%
18:00 +20°C° 0 mm 4 mps 760 mmHg 66%
19:00 +19°C° 0 mm 4 mps 760 mmHg 70%
20:00 +18°C° 0 mm 3 mps 760 mmHg 78%
21:00 +17°C° 0 mm 3 mps 760 mmHg 85%
22:00 +14°C° 0 mm 3 mps 761 mmHg 93%
23:00 +14°C° 0 mm 3 mps 761 mmHg 94%

Mañana, 26 Junio, Sábado

Tiempo Temperatura Precipitaciones Viento Presión Humedad
00:00 +14°C° 0 mm 3 mps 761 mmHg 95%
01:00 +13°C° 0 mm 3 mps 761 mmHg 96%
02:00 +13°C° 0 mm 4 mps 761 mmHg 96%
03:00 +13°C° 0 mm 4 mps 761 mmHg 97%
04:00 +13°C° 0 mm 4 mps 761 mmHg 97%
05:00 +15°C° 0 mm 4 mps 761 mmHg 87%
06:00 +17°C° 0 mm 5 mps 761 mmHg 78%
07:00 +19°C° 0 mm 5 mps 761 mmHg 69%
08:00 +20°C° 0 mm 5 mps 761 mmHg 64%
09:00 +21°C° 0 mm 5 mps 762 mmHg 59%
10:00 +22°C° 0 mm 6 mps 762 mmHg 54%
11:00 +23°C° 0 mm 5 mps 762 mmHg 52%
12:00 +23°C° 0 mm 5 mps 762 mmHg 51%
13:00 +23°C° 0 mm 5 mps 762 mmHg 50%
14:00 +23°C° 0 mm 5 mps 762 mmHg 53%
15:00 +22°C° 0 mm 5 mps 762 mmHg 55%
16:00 +21°C° 0 mm 5 mps 762 mmHg 58%
17:00 +21°C° 0 mm 4 mps 762 mmHg 62%
18:00 +20°C° 0 mm 4 mps 762 mmHg 67%
19:00 +19°C° 0 mm 4 mps 762 mmHg 72%
20:00 +17°C° 0 mm 3 mps 762 mmHg 79%
21:00 +16°C° 0 mm 3 mps 762 mmHg 86%
22:00 +14°C° 0 mm 3 mps 762 mmHg 94%
23:00 +13°C° 0 mm 3 mps 762 mmHg 94%

Pasado mañana, 27 Junio, Domingo

Tiempo Temperatura Precipitaciones Viento Presión Humedad
00:00 +13°C° 0 mm 3 mps 762 mmHg 94%
01:00 +12°C° 0 mm 3 mps 762 mmHg 95%
02:00 +12°C° 0 mm 3 mps 762 mmHg 94%
03:00 +12°C° 0 mm 3 mps 762 mmHg 94%
04:00 +12°C° 0 mm 3 mps 762 mmHg 93%
05:00 +14°C° 0 mm 4 mps 762 mmHg 86%
06:00 +17°C° 0 mm 4 mps 762 mmHg 78%
07:00 +19°C° 0 mm 4 mps 761 mmHg 70%
08:00 +20°C° 0 mm 4 mps 762 mmHg 66%
09:00 +22°C° 0 mm 5 mps 762 mmHg 61%
10:00 +23°C° 0 mm 5 mps 762 mmHg 56%
11:00 +23°C° 0 mm 5 mps 762 mmHg 55%
12:00 +23°C° 0 mm 5 mps 762 mmHg 53%
13:00 +25°C° 0 mm 5 mps 762 mmHg 51%
14:00 +23°C° 0 mm 4 mps 762 mmHg 53%
15:00 +23°C° 0 mm 4 mps 762 mmHg 54%
16:00 +23°C° 0 mm 4 mps 762 mmHg 55%
17:00 +22°C° 0 mm 4 mps 761 mmHg 60%
18:00 +21°C° 0 mm 3 mps 761 mmHg 66%
19:00 +20°C° 0 mm 3 mps 761 mmHg 71%
20:00 +19°C° 0 mm 3 mps 761 mmHg 77%
21:00 +17°C° 0 mm 3 mps 762 mmHg 83%
22:00 +16°C° 0 mm 2 mps 762 mmHg 89%
23:00 +15°C° 0 mm 2 mps 762 mmHg 90%

28 Junio, Lunes

Tiempo Temperatura Precipitaciones Viento Presión Humedad
00:00 +14°C° 0 mm 3 mps 762 mmHg 90%
01:00 +14°C° 0 mm 3 mps 762 mmHg 91%
02:00 +14°C° 0 mm 3 mps 762 mmHg 90%
03:00 +14°C° 0 mm 3 mps 761 mmHg 89%
04:00 +14°C° 0 mm 3 mps 761 mmHg 88%
05:00 +17°C° 0 mm 3 mps 761 mmHg 81%
06:00 +19°C° 0 mm 3 mps 761 mmHg 73%
07:00 +21°C° 0 mm 3 mps 761 mmHg 66%
08:00 +22°C° 0 mm 3 mps 762 mmHg 61%
09:00 +24°C° 0 mm 3 mps 762 mmHg 56%
10:00 +26°C° 0 mm 3 mps 762 mmHg 51%
11:00 +26°C° 0 mm 3 mps 762 mmHg 51%
12:00 +26°C° 0 mm 3 mps 762 mmHg 51%
13:00 +27°C° 0 mm 3 mps 761 mmHg 50%
14:00 +26°C° 0 mm 3 mps 761 mmHg 51%
15:00 +26°C° 0 mm 3 mps 761 mmHg 52%
16:00 +26°C° 0 mm 3 mps 761 mmHg 52%
17:00 +25°C° 0 mm 2 mps 761 mmHg 58%
18:00 +24°C° 0 mm 2 mps 761 mmHg 64%
19:00 +23°C° 0 mm 1 mps 761 mmHg 70%
20:00 +21°C° 0 mm 1 mps 760 mmHg 75%
21:00 +20°C° 0 mm 1 mps 760 mmHg 80%
22:00 +17°C° 0 mm 2 mps 760 mmHg 84%
23:00 +17°C° 0 mm 2 mps 760 mmHg 84%

29 Junio, Martes

Tiempo Temperatura Precipitaciones Viento Presión Humedad
00:00 +17°C° 0 mm 2 mps 760 mmHg 84%
01:00 +17°C° 0 mm 2 mps 760 mmHg 84%
02:00 +17°C° 0 mm 2 mps 759 mmHg 83%
03:00 +17°C° 0 mm 2 mps 759 mmHg 83%
04:00 +18°C° 0 mm 1 mps 759 mmHg 83%
05:00 +20°C° 0 mm 1 mps 759 mmHg 75%
06:00 +23°C° 0 mm 1 mps 759 mmHg 67%
07:00 +25°C° 0 mm 1 mps 759 mmHg 59%
08:00 +27°C° 0 mm 1 mps 758 mmHg 53%
09:00 +28°C° 0 mm 2 mps 758 mmHg 48%
10:00 +30°C° 0 mm 2 mps 758 mmHg 43%
11:00 +29°C° 0.1 mm 2 mps 758 mmHg 47%
12:00 +28°C° 0.1 mm 2 mps 757 mmHg 50%
13:00 +28°C° 0.1 mm 2 mps 757 mmHg 53%
14:00 +27°C° 0.1 mm 2 mps 757 mmHg 56%
15:00 +27°C° 0.1 mm 2 mps 757 mmHg 58%
16:00 +27°C° 0.1 mm 2 mps 757 mmHg 60%
17:00 +26°C° 0.1 mm 2 mps 757 mmHg 64%
18:00 +25°C° 0.1 mm 2 mps 756 mmHg 67%
19:00 +25°C° 0.1 mm 2 mps 756 mmHg 71%
20:00 +23°C° 0 mm 2 mps 756 mmHg 74%
21:00 +21°C° 0 mm 2 mps 756 mmHg 76%
22:00 +20°C° 0 mm 2 mps 756 mmHg 78%
23:00 +19°C° 0 mm 3 mps 756 mmHg 79%

30 Junio, Miércoles

Tiempo Temperatura Precipitaciones Viento Presión Humedad
00:00 +19°C° 0 mm 3 mps 756 mmHg 79%
01:00 +19°C° 0 mm 3 mps 756 mmHg 80%
02:00 +18°C° 0 mm 3 mps 756 mmHg 81%
03:00 +18°C° 0 mm 3 mps 756 mmHg 82%
04:00 +17°C° 0 mm 3 mps 756 mmHg 83%
05:00 +19°C° 0 mm 3 mps 756 mmHg 77%
06:00 +20°C° 0 mm 4 mps 756 mmHg 70%
07:00 +21°C° 0 mm 4 mps 756 mmHg 63%
08:00 +22°C° 0 mm 4 mps 756 mmHg 64%
09:00 +22°C° 0 mm 5 mps 756 mmHg 64%
10:00 +23°C° 0 mm 5 mps 757 mmHg 64%
11:00 +23°C° 0 mm 5 mps 757 mmHg 64%
12:00 +23°C° 0 mm 5 mps 757 mmHg 64%
13:00 +23°C° 0 mm 5 mps 757 mmHg 64%
14:00 +22°C° 0 mm 5 mps 757 mmHg 63%
15:00 +22°C° 0 mm 5 mps 757 mmHg 63%
16:00 +21°C° 0 mm 5 mps 758 mmHg 63%
17:00 +20°C° 0 mm 4 mps 758 mmHg 66%
18:00 +20°C° 0 mm 4 mps 758 mmHg 69%
19:00 +19°C° 0 mm 3 mps 758 mmHg 71%
20:00 +17°C° 0 mm 3 mps 758 mmHg 78%
21:00 +16°C° 0 mm 2 mps 759 mmHg 86%
22:00 +15°C° 0 mm 2 mps 759 mmHg 93%
23:00 +15°C° 0 mm 2 mps 759 mmHg 93%
Mostrar más

Necesitamos Su Consentimiento

Meteoprog y nuestros Proveedores de Servicios pueden almacenar y acceder a sus datos personales como cookies, identificadores de dispositivo u otras tecnologías similares de su dispositivo y procesar dichos datos para personalizar contenido y anuncios, además de ofrecer funciones de redes sociales y analizar el tráfico.

  • Almacenar y/o acceder a información en su dispositivo

    Se puede almacenar o acceder a cookies, identificadores de dispositivo u otra información de su dispositivo para los fines anteriormente indicados.

  • Anuncios y contenido personalizados, medición de anuncios y contenido, percepciones del público, y desarrollo de productos

    Los anuncios y el contenido pueden personalizarse en base a su perfil. Se pueden añadir más datos para personalizar mejor los anuncios y contenidos. Se puede medir el rendimiento de los anuncios y contenidos. Se puede obtener la percepción sobre el público que ha visto los anuncios y contenidos. Dichos datos pueden usarse para desarrollar o mejorar la experiencia del usuario, sistemas y software.

Al hacer clic en ‘Estoy De Acuerdo’ usted permitirá el uso de las cookies, identificadores de dispositivo, balizas web u otras tecnologías similares indicadas. Su configuración puede cambiarse desde el navegador de su dispositivo.

Para ciertos fines, los intereses legítimos pueden ser considerados por encima del consentimiento. Puede leer más sobre ello en nuestra Política de Privacidad y Cookies.